Regional Weather Roundup
Issued by NWS

Home | Current Version | Previous Version | Graphics & Text | Print | Product List | Glossary On
Versions: 1 2 3 4 5 6 7 8 9 10 11 12 13 14 15 16 17 18 19 20 21 22 23 24 25 26 27 28 29 30 31 32 33 34 35 36 37 38 39 40 41 42 43 44 45 46 47 48 49 50
000
ASUS43 KIND 210409
RWRIN

WEATHER ROUNDUP FOR INDIANA
NATIONAL WEATHER SERVICE INDIANAPOLIS IN
1200 AM EDT TUE OCT 21 2014

NOTE: "FAIR" INDICATES FEW OR NO CLOUDS BELOW 12,000 FEET WITH NO
SIGNIFICANT WEATHER AND/OR OBSTRUCTIONS TO VISIBILITY.

* - STATION DOES NOT REPORT WEATHER SUCH AS PRECIPITATION OR FOG.

+ - STATION NOT QUALITY CONTROLLED BY THE NATIONAL WEATHER SERVICE.
    USE DATA WITH CAUTION...ESPECIALLY DEWPOINT AND RELATIVE
    HUMIDITY OBSERVATIONS.

INZ001>003-010>013-019-020-210500-
NORTHWEST INDIANA

CITY           SKY/WX    TMP DP  RH WIND       PRES   REMARKS
GARY /AIRPORT/ CLOUDY    55  44  66 N12G17    29.99S
KNOX *+        CLOUDY    50  45  81 NW3       29.97S
LA PORTE +     CLOUDY    51  46  80 NW8       29.98S
MICHIGAN CITY+ CLOUDY    50  41  71 N10       29.99S
MONTICELLO +   CLOUDY    50  46  88 N5        29.97S
RENSSELAER +   PTCLDY    50  48  93 CALM      29.99S
VALPARAISO     LGT RAIN  51  45  79 N6        29.99R

$$

LMZ046-743>745-210500-
SOUTHERN LAKE MICHIGAN

STATION/POSITION TIME  TEMP WIND        PRES
                       AIR  DIR/SP/G
                 (UTC) (F)  (DEG/KT/KT) (MB)
MICHIGAN CITY    0400   52  340/ 20/ 22   N/A

$$

INZ004-005-014>016-021>024-210500-
NORTH CENTRAL INDIANA

CITY           SKY/WX    TMP DP  RH WIND       PRES   REMARKS
GOSHEN         CLOUDY    51  44  77 NW12      29.95R
LOGANSPORT +   CLOUDY    50  45  81 NW5       29.97S
PERU/GRISSOM   MOCLDY    50  50 100 NW6       29.96R
ROCHESTER +    DRIZZLE   52  48  87 NW8       29.97R
SOUTH BEND     LGT RAIN  51  46  83 N7        29.98R
WARSAW +       CLOUDY    50  45  81 NW5       29.95R

$$

INZ006>009-017-018-025>027-210500-
NORTHEAST INDIANA

CITY           SKY/WX    TMP DP  RH WIND       PRES   REMARKS
ANGOLA *+      CLOUDY    50  45  81 NW7       29.92S
AUBURN +       CLOUDY    52  43  71 NW7       29.92S
FORT WAYNE     MOCLDY    51  45  79 W6        29.94R
HUNTINGTON +   CLOUDY    50  46  84 NW7       29.94S

$$

INZ028-029-035-036-043>045-051>053-210500-
WEST CENTRAL INDIANA

CITY           SKY/WX    TMP DP  RH WIND       PRES   REMARKS
GREENCASTLE +  CLEAR     52  46  82 N3        29.98S
LAFAYETTE      CLOUDY    51  47  86 N3        29.98R
TERRE HAUTE    CLEAR     54  44  69 NW5       29.99R

$$

INZ030>032-037>040-046>048-054>057-064-065-210500-
CENTRAL INDIANA

CITY           SKY/WX    TMP DP  RH WIND       PRES   REMARKS
CP ATTERBURY + CLEAR     54  46  76 NW9       29.96R
FRANKFORT +      N/A     46  46 100 W3        29.99S FOG
INDIANAPOLIS   CLOUDY    54  46  74 N12       29.96R
-EAGLE CREEK   CLOUDY    54  46  74 N10       29.96R
KOKOMO *+      CLEAR     48  45  87 NW6       29.97R
MARION +       MOCLDY    51  45  82 N5        29.95S
MT COMFORT *+  PTCLDY    54  43  66 N7        29.96S
SHELBYVILLE    PTCLDY    57  46  66 N14G23    29.95R
ZIONSVILLE +   CLOUDY    52  46  78 NW6       29.97S

$$

INZ033-034-041-042-049-050-058-059-210500-
EAST CENTRAL INDIANA

CITY           SKY/WX    TMP DP  RH WIND       PRES   REMARKS
MUNCIE         CLOUDY    53  49  86 NW6       29.94R

$$

INZ060-061-067>069-081>083-085>088-210500-
SOUTHWEST INDIANA

CITY           SKY/WX    TMP DP  RH WIND       PRES   REMARKS
EVANSVILLE     CLEAR     58  44  60 NW6       30.00R
HUNTINGBURG *+ CLEAR     54  43  66 NW6       29.98S
WASHINGTON +   CLEAR     54  46  73 NW6       29.97S

$$

INZ062-063-066-070>080-084-089>092-210500-
SOUTH CENTRAL AND SOUTHEAST INDIANA

CITY           SKY/WX    TMP DP  RH WIND       PRES   REMARKS
BLOOMINGTON    CLEAR     55  45  68 NW3       29.97R
NORTH VERNON + CLEAR     54  48  82 NW5       29.94

$$



USA.gov is the U.S. government's official web portal to all federal, state and local government web resources and services.